Location: Enborne
(51.3833°N, 1.3667°W)
Time: 15:29:36
(UTC+00:00)

USA 234 - Pass Details

Date: 18 September 2020
Orbit: 1102 x 1106 km, 123.0° (Epoch: 16 October)

Event Time Altitude Azimuth Distance (km) Brightness Sun altitude
Rises 22:00:51 0° 62° (ENE) 3,926 6.1 -31.5°
Reaches altitude 10° 22:03:20 10° 61° (ENE) 2,967 5.4 -31.8°
Enters shadow 22:03:22 10° 61° (ENE) 2,960 5.4 -31.8°
Exits shadow 22:06:55 35° 55° (NE) 1,693 4.2 -32.1°
Maximum altitude 22:09:52 75° 338° (NNW) 1,142 3.3 -32.3°
Drops below altitude 10° 22:16:24 10° 254° (WSW) 2,963 5.6 -32.9°
Sets 22:18:53 0° 253° (WSW) 3,920 6.3 -33.1°
